Weather History for KMHR - September, 2013

Change the Weather History Date:

Tuesday, September 10, 2013

  Actual Average Record
Temperature  
Mean Temperature 72 °F -  
Max Temperature 86 °F 85 °F 100 °F (1996)
Min Temperature 59 °F 56 °F 46 °F (2010)
Cooling Degree Days 8    
Growing Degree Days 22 (Base 50)    
Moisture  
Dew Point 54 °F    
Average Humidity 58    
Maximum Humidity 88    
Minimum Humidity 33    
Precipitation  
Precipitation 0.00 in - - ()
Sea Level Pressure  
Sea Level Pressure 29.75 in    
Wind  
Wind Speed 7 mph (South)    
Max Wind Speed 14 mph    
Max Gust Speed -    
Visibility 10 miles    
Events      
Averages and records for this station are not official NWS values.
T = Trace of Precipitation, MM = Missing Value Source: NWS Daily Summary

Daily Weather History Graph

Daily Weather History Graph

Search for Another Location

Airport or City:

Trip Planner

Search our weather history database for the weather conditions in past years. The results will help you decide how hot, cold, wet, or windy it might be!

Date:

Astronomy

Sep. 10, 2013 Rise Set
Actual Time 6:42 AM PDT 7:20 PM PDT
Civil Twilight 6:15 AM PDT 7:47 PM PDT
Nautical Twilight 5:44 AM PDT 8:18 PM PDT
Astronomical Twilight 5:11 AM PDT 8:51 PM PDT
Moon 12:09 PM PDT (9/10) 10:32 PM PDT (9/10)
Length of Visible Light 13h 31m
Length of Day
12h 38m
Waxing Crescent, 29% of the Moon is Illuminated
Sep 10
Waxing Crescent
Sep 12
First Quarter
Sep 19
Full
Sep 26
Last Quarter
Oct 4
New

Hourly Weather History & Observations

Time (PDT) Temp. Heat Index Dew Point Humidity Pressure Visibility Wind Dir Wind Speed Gust Speed Precip Events Conditions
12:55 AM 66.2 °F - 48.2 °F 52% 29.67 in 10.0 mi ESE 4.6 mph - N/A   Clear
1:50 AM 64.4 °F - 50.0 °F 59% 29.68 in 10.0 mi Calm Calm - N/A   Clear
2:50 AM 62.6 °F - 48.2 °F 59% 29.68 in 10.0 mi SSE 5.8 mph - N/A   Clear
3:50 AM 60.8 °F - 50.0 °F 68% 29.68 in 10.0 mi SE 5.8 mph - N/A   Clear
4:50 AM 62.6 °F - 50.0 °F 63% 29.69 in 10.0 mi SSE 6.9 mph - N/A   Clear
7:50 AM 62.6 °F - 55.4 °F 77% 29.75 in 10.0 mi South 6.9 mph - N/A   Clear
8:50 AM 66.2 °F - 55.4 °F 68% 29.76 in 10.0 mi South 5.8 mph - N/A   Clear
9:46 AM 71.6 °F - 55.4 °F 57% 29.77 in 10.0 mi SSE 6.9 mph - N/A   Clear
10:49 AM 75.2 °F - 55.4 °F 50% 29.77 in 10.0 mi SSW 4.6 mph - N/A   Clear
11:52 AM 78.8 °F - 55.4 °F 44% 29.77 in 10.0 mi SSW 9.2 mph - N/A   Clear
12:55 PM 80.6 °F 80.5 °F 55.4 °F 42% 29.75 in 10.0 mi SSW 8.1 mph - N/A   Clear
1:46 PM 84.2 °F 82.8 °F 53.6 °F 35% 29.74 in 10.0 mi SW 9.2 mph - N/A   Clear
2:51 PM 86.0 °F 84.2 °F 53.6 °F 33% 29.73 in 10.0 mi South 10.4 mph - N/A   Clear
3:49 PM 86.0 °F 84.5 °F 55.4 °F 35% 29.72 in 10.0 mi SSW 13.8 mph - N/A   Clear
4:46 PM 86.0 °F 84.5 °F 55.4 °F 35% 29.72 in 10.0 mi SSW 13.8 mph - N/A   Clear
5:46 PM 80.6 °F 80.8 °F 57.2 °F 45% 29.74 in 10.0 mi South 12.7 mph - N/A   Clear
6:46 PM 73.4 °F - 57.2 °F 57% 29.76 in 10.0 mi SSW 11.5 mph - N/A   Clear
7:45 PM 66.2 °F - 57.2 °F 73% 29.79 in 10.0 mi South 10.4 mph - N/A   Clear
8:45 PM 64.4 °F - 57.2 °F 77% 29.81 in 10.0 mi South 8.1 mph - N/A   Clear
9:45 PM 60.8 °F - 55.4 °F 82% 29.84 in 10.0 mi South 5.8 mph - N/A   Clear
10:45 PM 59.0 °F - 55.4 °F 88% 29.85 in 10.0 mi SSE 6.9 mph - N/A   Clear
11:45 PM 59.0 °F - 55.4 °F 88% 29.86 in 10.0 mi SE 6.9 mph - N/A   Clear